TimeGMT,TemperatureF,Dew PointF,Humidity,Sea Level PressureIn,VisibilityMPH,Wind Direction,Wind SpeedMPH,Gust SpeedMPH,PrecipitationIn,Events,Conditions,WindDirDegrees,DateUTC
12:20 AM,50.0,48.2,94,29.56,6.2,South,6.9,-,N/A,Rain,Light Rain,170,2011-11-01 00:20:00
12:50 AM,50.0,48.2,94,29.56,6.2,Variable,3.5,-,N/A,Rain,Light Rain,0,2011-11-01 00:50:00
1:20 AM,50.0,48.2,94,29.53,6.2,Variable,2.3,-,N/A,,Overcast,0,2011-11-01 01:20:00
1:50 AM,50.0,48.2,94,29.53,6.2,South,4.6,-,N/A,,Mostly Cloudy,170,2011-11-01 01:50:00
2:20 AM,50.0,48.2,94,29.53,6.2,SE,4.6,-,N/A,,Mostly Cloudy,140,2011-11-01 02:20:00
2:50 AM,51.8,48.2,88,29.53,6.2,South,9.2,-,N/A,Rain,Light Rain,190,2011-11-01 02:50:00
3:20 AM,51.8,48.2,88,29.53,6.2,SSW,9.2,-,N/A,,Mostly Cloudy,210,2011-11-01 03:20:00
3:50 AM,50.0,48.2,94,29.53,6.2,SW,8.1,-,N/A,,Partly Cloudy,220,2011-11-01 03:50:00
4:20 AM,50.0,48.2,94,29.53,6.2,SSW,4.6,-,N/A,,Scattered Clouds,200,2011-11-01 04:20:00
4:50 AM,50.0,48.2,94,29.53,6.2,SSW,9.2,-,N/A,,Mostly Cloudy,210,2011-11-01 04:50:00
5:20 AM,50.0,46.4,87,29.53,6.2,SSW,9.2,-,N/A,,Scattered Clouds,210,2011-11-01 05:20:00
5:50 AM,48.2,46.4,93,29.53,6.2,WSW,10.4,-,N/A,,Scattered Clouds,240,2011-11-01 05:50:00
6:20 AM,48.2,44.6,87,29.56,6.2,SSW,11.5,-,N/A,,Partly Cloudy,210,2011-11-01 06:20:00
6:50 AM,48.2,44.6,87,29.56,6.2,SSW,12.7,-,N/A,,Partly Cloudy,210,2011-11-01 06:50:00
7:20 AM,46.4,44.6,93,29.56,6.2,SSW,9.2,-,N/A,,Partly Cloudy,210,2011-11-01 07:20:00
7:50 AM,44.6,42.8,93,29.59,-9999.0,Variable,3.5,-,N/A,,Clear,0,2011-11-01 07:50:00
8:20 AM,48.2,44.6,87,29.59,-9999.0,SSW,9.2,-,N/A,,Clear,210,2011-11-01 08:20:00
8:50 AM,48.2,44.6,87,29.62,6.2,WSW,5.8,-,N/A,,Partly Cloudy,240,2011-11-01 08:50:00
9:20 AM,48.2,44.6,87,29.62,6.2,SW,9.2,-,N/A,,Partly Cloudy,230,2011-11-01 09:20:00
9:50 AM,50.0,46.4,87,29.62,6.2,SW,5.8,-,N/A,,Partly Cloudy,230,2011-11-01 09:50:00
10:20 AM,51.8,46.4,82,29.62,6.2,SW,10.4,-,N/A,,Scattered Clouds,230,2011-11-01 10:20:00
10:50 AM,51.8,46.4,82,29.62,6.2,SW,12.7,-,N/A,,Scattered Clouds,220,2011-11-01 10:50:00
11:20 AM,51.8,44.6,76,29.62,6.2,SSW,12.7,-,N/A,,Scattered Clouds,210,2011-11-01 11:20:00
11:50 AM,51.8,46.4,82,29.65,6.2,SW,13.8,-,N/A,,Scattered Clouds,220,2011-11-01 11:50:00
12:20 PM,51.8,44.6,76,29.65,6.2,SW,15.0,-,N/A,,Scattered Clouds,220,2011-11-01 12:20:00
12:50 PM,51.8,44.6,76,29.65,6.2,SW,13.8,-,N/A,,Scattered Clouds,220,2011-11-01 12:50:00
1:20 PM,51.8,44.6,76,29.65,6.2,SW,13.8,-,N/A,,Scattered Clouds,220,2011-11-01 13:20:00
1:50 PM,51.8,44.6,76,29.65,6.2,SW,15.0,-,N/A,,Scattered Clouds,230,2011-11-01 13:50:00
2:20 PM,51.8,44.6,76,29.65,6.2,SW,11.5,-,N/A,,Scattered Clouds,220,2011-11-01 14:20:00
2:50 PM,51.8,44.6,76,29.65,6.2,SW,12.7,-,N/A,,Partly Cloudy,220,2011-11-01 14:50:00
3:20 PM,51.8,44.6,76,29.65,6.2,SSW,12.7,-,N/A,,Partly Cloudy,210,2011-11-01 15:20:00
3:50 PM,50.0,42.8,76,29.65,6.2,SSW,10.4,-,N/A,,Partly Cloudy,210,2011-11-01 15:50:00
4:20 PM,48.2,42.8,82,29.68,6.2,SSW,8.1,-,N/A,,Partly Cloudy,210,2011-11-01 16:20:00
4:50 PM,48.2,41.0,76,29.68,6.2,South,6.9,-,N/A,,Partly Cloudy,170,2011-11-01 16:50:00
5:20 PM,46.4,41.0,81,29.68,-9999.0,SSE,8.1,-,N/A,,Clear,160,2011-11-01 17:20:00
5:50 PM,46.4,41.0,81,29.68,-9999.0,SSE,8.1,-,N/A,,Clear,150,2011-11-01 17:50:00
6:20 PM,46.4,41.0,81,29.68,-9999.0,SSE,6.9,-,N/A,,Clear,160,2011-11-01 18:20:00
6:50 PM,44.6,41.0,87,29.68,-9999.0,SE,4.6,-,N/A,,Clear,130,2011-11-01 18:50:00
7:20 PM,44.6,39.2,81,29.71,-9999.0,ESE,5.8,-,N/A,,Clear,120,2011-11-01 19:20:00
7:50 PM,46.4,41.0,81,29.68,-9999.0,SE,8.1,-,N/A,,Clear,130,2011-11-01 19:50:00
8:20 PM,46.4,41.0,81,29.71,-9999.0,ESE,6.9,-,N/A,,Clear,120,2011-11-01 20:20:00
8:50 PM,46.4,41.0,81,29.71,6.2,ESE,6.9,-,N/A,,Mostly Cloudy,120,2011-11-01 20:50:00
9:20 PM,44.6,41.0,87,29.71,6.2,East,5.8,-,N/A,,Scattered Clouds,100,2011-11-01 21:20:00
9:50 PM,44.6,41.0,87,29.68,6.2,ESE,6.9,-,N/A,,Scattered Clouds,110,2011-11-01 21:50:00
10:20 PM,42.8,41.0,93,29.68,6.2,ENE,5.8,-,N/A,,Scattered Clouds,70,2011-11-01 22:20:00
10:50 PM,42.8,39.2,87,29.68,6.2,ENE,6.9,-,N/A,,Scattered Clouds,60,2011-11-01 22:50:00
11:20 PM,42.8,39.2,87,29.68,6.2,ENE,5.8,-,N/A,,Scattered Clouds,60,2011-11-01 23:20:00
11:50 PM,42.8,41.0,93,29.65,-9999.0,ENE,6.9,-,N/A,,Clear,60,2011-11-01 23:50:00